Location: Borea
(45.6167°N, 23.0167°E)
Time: 15:08:45
(UTC+00:00)

FENGYUN 1C DEB - Pass Details

Date: 27 February 2024
Orbit: 561 x 661 km, 99.3° (Epoch: 16 April)

Event Time Altitude Azimuth Distance (km) Brightness Sun altitude
Rises 02:49:49 0° 16° (NNE) 3,089 ? -25.4°
Reaches altitude 10° 02:52:07 10° 17° (NNE) 2,151 ? -25.0°
Maximum altitude 02:56:50 79° 105° (ESE) 691 ? -24.2°
Enters shadow 02:58:04 48° 181° (S) 868 ? -24.0°
